Flight Track Log - Related Links

Times and Time Zones

All times are in EDT time to prevent confusion due to time zone crossing. See the UCA4838 flight status page for this flight to view local times or setup timezone preferences in your user account.

Time Position Orientation Groundspeed Altitude Reporting Facility
EDT Latitude Longitude Course Direction KTS MPH feet Rate Location/Type
Sat 05:55:49 AM 43.0975 -77.6972 124° Southeast 138 159 1,100  Level Cleveland Center
Sat 05:56:19 AM 43.0786 -77.6981 182° South 155 178 1,700 1,000 Climbing Cleveland Center
Sat 05:57:19 AM 43.0583 -77.6367 114° Southeast 194 223 2,600 1,091 Climbing Cleveland Center
Sat 05:58:20 AM 43.0336 -77.5694 117° Southeast 198 228 3,900 1,328 Climbing Cleveland Center
Sat 05:59:21 AM 43.0089 -77.4997 116° Southeast 207 238 5,300 1,375 Climbing Cleveland Center
Sat 06:00:00 AM 42.9338 -77.2508 124° Southeast  Level FlightAware Approximate
Sat 06:00:44 AM 42.9728 -77.3994 116° Southeast 220 253 7,200  Level Cleveland Center
Sat 06:01:00 AM 42.9002 -77.1669 124° Southeast  Level FlightAware Approximate
Sat 06:03:03 AM 42.9153 -77.2347 115° Southeast 225 259 10,000  Level New York Center
Sat 06:04:04 AM 42.8861 -77.1583 118° Southeast 225 259 11,100 1,100 Climbing New York Center
Sat 06:05:03 AM 42.8589 -77.0850 117° Southeast 225 259 12,200 958 Climbing New York Center
Sat 06:06:03 AM 42.8294 -77.0114 119° Southeast 225 259 13,000 446 Climbing New York Center
Sat 06:07:04 AM 42.7964 -76.9264 118° Southeast 237 273 13,100 49 Climbing New York Center
Sat 06:08:05 AM 42.7572 -76.8378 121° Southeast 257 296 13,100 -57 Level New York Center
Sat 06:08:49 AM 42.7186 -76.7561 123° Southeast 262 302 13,000 -58 Descending Boston Center
Sat 06:09:49 AM 42.6917 -76.6978 122° Southeast 280 322 13,000 -50 Level Boston Center
Sat 06:10:49 AM 42.6456 -76.5900 120° Southeast 275 316 12,900 -50 Descending Boston Center
Sat 06:11:49 AM 42.6050 -76.4997 121° Southeast 275 316 12,900  Level Boston Center
Sat 06:12:49 AM 42.5644 -76.4125 122° Southeast 275 316 12,900  Level Boston Center
Sat 06:13:49 AM 42.5256 -76.3256 121° Southeast 275 316 12,900  Level Boston Center
Sat 06:14:49 AM 42.4869 -76.2358 120° Southeast 275 316 12,900  Level Boston Center
Sat 06:15:49 AM 42.4483 -76.1489 121° Southeast 275 316 12,900  Level Boston Center
Sat 06:16:49 AM 42.4014 -76.0506 123° Southeast 287 330 12,900  Level Boston Center
Sat 06:17:49 AM 42.3664 -75.9697 120° Southeast 281 323 12,900  Level Boston Center
Sat 06:18:49 AM 42.3253 -75.8775 121° Southeast 282 325 12,900  Level Boston Center
Sat 06:19:49 AM 42.2861 -75.7969 123° Southeast 270 311 12,900  Level Boston Center
Sat 06:20:49 AM 42.2450 -75.7019 120° Southeast 276 318 12,900  Level Boston Center
Sat 06:21:49 AM 42.2058 -75.6158 122° Southeast 276 318 12,900  Level Boston Center
Sat 06:22:49 AM 42.1644 -75.5269 122° Southeast 276 318 12,900 50 Level Boston Center
Sat 06:23:49 AM 42.1231 -75.4408 123° Southeast 281 323 13,000 50 Climbing Boston Center
Sat 06:24:49 AM 42.0836 -75.3522 121° Southeast 281 323 13,000  Level Boston Center
Sat 06:25:49 AM 42.0442 -75.2639 121° Southeast 281 323 13,000  Level Boston Center
Sat 06:26:49 AM 42.0089 -75.1700 117° Southeast 281 323 13,000  Level Boston Center
Sat 06:27:49 AM 41.9736 -75.0792 118° Southeast 271 312 13,000  Level Boston Center
Sat 06:28:49 AM 41.9422 -74.9969 117° Southeast 271 312 13,000  Level Boston Center
Sat 06:29:49 AM 41.9047 -74.8950 116° Southeast 276 318 13,000 -100 Level Boston Center
Sat 06:30:49 AM 41.8711 -74.8100 118° Southeast 276 318 12,800 -700 Descending Boston Center
Sat 06:31:49 AM 41.8081 -74.7350 138° Southeast 276 318 11,600 -1,200 Descending Boston Center
Sat 06:32:49 AM 41.7531 -74.6775 142° Southeast 276 318 10,400 -1,250 Descending Boston Center
Sat 06:33:49 AM 41.6856 -74.6139 145° Southeast 276 318 9,100 -1,200 Descending Boston Center
Sat 06:34:49 AM 41.6231 -74.6117 178° South 252 290 8,000 -1,100 Descending Boston Center
Sat 06:35:49 AM 41.5458 -74.6175 183° South 253 291 6,900 -1,000 Descending Boston Center
Sat 06:36:49 AM 41.4833 -74.6181 180° South 258 297 6,000 -265 Descending Boston Center
Sat 06:39:13 AM 41.3167 -74.6000 175° South 256 295 6,000  Level New York TRACON
Sat 06:40:13 AM 41.2667 -74.5333 135° Southeast 256 295 6,000 -158 Level New York TRACON
Sat 06:41:07 AM 41.2167 -74.4833 143° Southeast 262 302 5,700 -579 Descending New York TRACON
Sat 06:42:07 AM 41.1667 -74.4167 135° Southeast 269 310 4,900 -800 Descending New York TRACON
Sat 06:43:07 AM 41.1000 -74.3500 143° Southeast 264 304 4,100 -450 Descending New York TRACON
Sat 06:44:07 AM 41.0500 -74.2833 135° Southeast 263 303 4,000 -211 Descending New York TRACON
Sat 06:45:01 AM 41.0000 -74.2333 143° Southeast 261 300 3,700 -526 Descending New York TRACON
Sat 06:46:01 AM 40.9500 -74.1667 135° Southeast 255 293 3,000 -368 Descending New York TRACON
Sat 06:46:55 AM 40.9000 -74.1167 143° Southeast 241 277 3,000 -211 Level New York TRACON
Sat 06:47:55 AM 40.8500 -74.0833 153° Southeast 236 272 2,600 -500 Descending New York TRACON
Sat 06:48:55 AM 40.8000 -74.1000 194° South 179 206 2,000 -600 Descending New York TRACON

Login

Don't have an account? Register now (free) for customized features, flight alerts, and more!